Theta_e
339 339 340 340 343 344 344 343 344 341 339 340 339 339 339 339 340 338 337 335 335 334 334 334 336 335 335 335 335 333 334 333
339 339 341 342 344 344 345 340 343 342 339 338 337 335 334 334 337 337 335 333 334 334 334 335 336 336 335 335 334 335 335 333
341 343 344 344 343 345 344 341 343 341 338 337 334 332 332 333 335 336 335 334 334 335 335 335 335 335 334 334 334 334 332 331
340 341 342 343 344 345 346 340 340 340 336 333 331 332 330 329 334 335 335 335 335 334 334 334 334 333 331 333 333 332 331 330
338 341 341 341 342 345 346 343 335 336 335 333 333 330 330 329 331 335 335 334 335 336 334 335 334 333 332 331 329 330 330 330
339 338 339 342 342 341 342 340 334 336 338 337 332 334 330 330 332 332 330 331 336 336 335 335 338 336 333 328 329 326 329 329
337 336 339 342 341 340 341 342 340 339 340 339 337 335 333 337 336 336 333 335 338 337 335 336 339 336 334 333 329 325 322 327
332 336 340 340 337 336 339 341 340 339 337 337 336 334 335 338 334 332 335 336 337 336 332 334 335 334 333 331 331 332 327 324
335 335 338 337 335 334 338 338 337 336 335 334 335 334 334 328 329 330 328 329 330 331 331 332 332 330 329 329 326 320 321 321
332 334 335 334 334 335 336 336 337 336 336 337 337 334 330 328 331 329 330 329 328 328 328 326 327 324 325 325 323 321 321 322
331 331 334 334 334 335 335 337 338 338 338 337 335 334 333 330 328 330 328 327 327 327 326 325 324 323 319 321 321 321 311 318
330 329 330 333 333 334 335 336 335 334 337 335 334 332 326 326 329 329 329 325 324 323 323 321 321 318 319 316 319 319 318 314
329 328 329 330 334 334 334 334 335 335 334 333 331 327 328 330 329 325 325 323 321 319 319 318 317 314 316 315 314 314 315 315
328 329 329 331 333 332 332 331 330 331 330 329 330 328 326 327 325 322 317 317 317 319 317 316 317 315 314 313 314 314 313 314
328 326 328 330 331 330 329 330 331 328 329 327 328 328 327 323 321 317 315 314 314 316 317 316 314 314 314 314 313 313 312 311
329 329 330 330 329 329 328 329 328 326 327 325 326 326 323 321 318 316 315 314 314 317 316 315 314 315 314 314 312 311 312 311
327 329 330 330 330 330 330 328 327 327 325 326 325 323 320 317 316 318 315 317 315 315 314 314 314 315 314 314 311 312 312 313
327 329 329 330 330 330 330 327 324 323 323 324 322 319 318 318 318 317 318 317 316 314 313 314 314 315 315 314 313 313 313 312
326 327 328 329 329 327 325 322 320 321 322 321 318 317 316 316 316 316 316 317 316 313 313 313 313 314 315 315 315 313 312 313
324 324 323 326 325 323 322 322 321 322 320 318 316 316 316 316 316 316 317 315 315 313 313 312 313 314 315 315 314 314 312 312
Wind_Speed
16 16 16 15 13 10 12 10 9 8 6 4 4 3 3 4 5 5 5 4 4 4 4 4 4 5 6 7 7 5 6 6
16 15 14 12 11 11 11 8 10 9 5 4 4 2 2 3 5 5 4 4 5 5 4 5 5 4 6 6 5 6 7 8
11 11 9 9 11 11 11 11 10 9 8 4 3 3 4 4 5 6 5 5 6 6 5 5 5 5 6 6 7 7 6 4
9 10 9 9 10 11 11 10 8 9 7 8 6 6 5 5 5 6 7 6 7 7 8 7 6 4 3 7 8 8 6 5
9 8 7 7 9 11 13 13 11 12 10 5 4 3 6 4 4 6 7 7 9 10 9 8 6 4 6 4 4 6 8 6
8 6 5 6 8 10 13 9 7 8 7 5 3 4 5 5 4 1 2 3 10 9 8 9 7 7 6 5 5 4 6 8
7 6 6 6 6 6 7 7 6 7 6 6 6 5 4 2 2 1 3 2 8 6 6 8 9 8 6 5 6 5 6 7
4 4 2 3 3 3 3 5 5 5 5 5 4 2 3 4 3 1 4 4 7 7 6 9 9 8 8 6 8 9 8 5
2 4 2 1 1 4 5 6 6 5 5 4 3 3 3 3 2 1 3 4 5 5 6 6 6 6 7 7 5 6 6 4
2 1 2 2 4 7 7 6 5 4 3 3 3 3 2 2 1 3 4 5 5 4 5 5 6 5 6 5 4 4 4 5
4 3 4 4 6 7 8 6 5 4 5 4 4 4 2 2 3 1 3 4 5 5 5 5 5 6 7 7 5 6 3 4
6 4 3 4 5 6 7 6 6 5 5 3 3 3 2 2 2 2 0 4 5 5 6 7 7 7 7 8 7 9 8 9
7 6 3 2 2 4 5 6 6 6 5 4 4 4 3 2 1 1 3 4 4 6 7 7 7 7 9 10 11 10 9 9
7 6 3 3 4 4 5 6 6 5 4 5 5 4 2 1 2 3 4 4 4 7 7 7 8 8 10 10 11 13 11 10
7 5 5 4 4 4 5 4 4 3 4 4 4 3 4 4 3 4 5 5 5 6 7 8 8 9 10 10 10 12 11 10
6 5 5 6 6 5 4 4 5 5 4 2 3 5 3 2 2 3 3 4 5 7 7 9 10 11 10 9 9 9 10 9
6 5 6 6 6 5 5 5 5 5 3 2 3 4 3 2 2 3 4 5 5 7 8 8 10 11 10 9 8 9 10 9
7 7 7 5 5 5 5 5 6 5 4 4 4 3 1 0 3 5 7 6 6 8 8 9 10 10 9 9 8 9 10 7
9 8 7 7 7 7 6 7 6 6 6 5 4 3 3 4 5 6 7 6 6 7 8 9 10 10 10 9 8 7 10 10
10 8 8 8 9 8 8 7 6 6 6 5 4 4 5 6 7 8 7 7 6 7 8 8 9 9 8 8 8 7 7 10
Wind_Direction
185 188 195 201 201 205 205 198 203 220 213 192 195 206 222 219 232 241 246 256 240 250 270 273 284 286 288 291 284 276 303 297
190 195 199 199 204 210 211 207 209 207 221 205 216 208 232 257 236 239 246 254 259 264 269 283 285 297 290 285 284 291 295 296
194 203 204 202 208 213 217 210 212 199 210 201 210 207 218 226 251 250 248 260 271 274 268 273 284 299 291 286 290 290 280 277
188 205 203 211 222 223 214 205 200 197 185 200 189 216 218 207 234 254 266 268 269 277 274 268 268 278 265 284 291 289 263 263
204 213 214 223 235 239 220 211 187 197 201 226 233 207 240 249 249 266 273 276 276 272 272 269 255 272 243 252 275 266 272 252
204 206 230 251 257 246 229 204 185 201 202 198 193 232 248 252 275 307 297 299 287 280 278 274 275 258 249 242 230 253 278 279
230 243 253 265 274 275 228 207 194 197 208 210 223 235 248 249 89 32 280 354 285 278 278 282 285 276 260 254 243 222 237 245
297 311 257 270 329 341 152 162 162 180 192 188 193 141 112 92 81 34 339 305 291 289 282 286 299 281 280 256 273 265 266 262
19 22 331 276 59 109 112 124 135 161 162 156 152 122 107 76 101 355 345 327 323 308 302 314 315 299 316 323 315 310 302 288
99 98 78 77 97 104 118 106 137 154 151 131 96 109 104 148 155 96 35 15 18 15 4 358 2 346 356 346 325 307 280 294
102 38 58 89 111 113 113 101 104 117 115 121 129 133 126 141 113 39 36 20 26 34 18 5 359 349 354 335 315 285 259 273
103 71 35 63 99 119 121 102 93 89 95 121 120 88 65 90 67 34 25 34 32 25 16 5 1 348 339 331 320 304 295 280
125 110 88 59 141 114 111 109 107 114 115 120 121 104 104 75 46 23 61 44 15 18 13 5 352 341 336 326 316 310 295 286
123 117 134 147 132 123 121 122 109 104 117 116 128 109 71 35 70 21 22 18 8 18 2 352 339 327 331 323 318 306 304 298
143 154 178 166 152 140 128 102 95 105 134 155 147 109 86 77 38 8 6 358 341 352 342 335 338 336 327 316 312 303 303 303
143 164 176 163 158 164 154 148 126 134 168 127 74 109 106 82 14 6 344 315 326 333 335 343 331 326 320 317 305 304 301 298
164 189 189 179 179 184 190 168 167 194 175 138 152 149 134 36 357 319 304 308 323 332 333 328 331 326 320 312 313 313 309 302
189 195 197 194 199 184 193 199 217 214 200 173 174 174 234 272 296 302 305 311 312 323 322 330 329 327 326 317 324 332 314 299
187 189 201 202 195 197 193 207 213 212 202 180 196 241 260 276 290 296 299 298 306 308 318 325 329 327 331 326 326 329 319 312
188 189 198 206 208 203 213 216 221 215 199 212 232 251 264 268 278 285 293 282 299 298 311 317 325 321 318 325 326 327 315 310